Home > Weather > Cairns > Past weeks

Flag for Australia Past Weather in Cairns, Queensland, Australia — Yesterday and Last 2 Weeks

Now
82 °F

Passing clouds.


Feels Like: 91 °F
Forecast: 70 / 84 °F
Wind: 8 mph from North

Location: Cairns Airport

Current Time: May 28, 2016 at 2:07:12 PM

Latest Report: May 28, 2016 at 1:00 PM


Visibility: N/A

Pressure: 29.92 "Hg

Humidity: 84%

Dew Point: 77 °F

Location of CairnsLocation

Past Weather in Cairns — Graph

°F

Cairns Temperature Yesterday

Maximum temperature yesterday: 84 °F (at 2:00 PM)
Minimum temperature yesterday: 68 °F (at 5:30 AM)
Average temperature yesterday: 77 °F

High & Low Weather Summary for the Past Weeks

 TemperatureHumidityPressure
High86 °F (May 19, 12:30 PM)100% (May 15, 12:00 AM)30.04 "Hg (May 15, 12:00 AM)
Low68 °F (May 27, 5:30 AM)52% (May 19, 12:30 PM)29.86 "Hg (May 19, 1:30 PM)
Average77 °F81%29.96 "Hg
* Reported May 13 12:00 PM — May 28 12:30 PM, Cairns, Weather by CustomWeather, © 2016

Note: Actual official high and low records may vary slightly from our data, if they occured in-between our weather recording intervals... More about our weather records

Advertising

Cairns Weather History for the Previous 24 Hours

Scroll right to see more
 ConditionsComfort  
Time TempWeatherWind HumidityBarometerVisibility
12:30 PM
Sat, May 28
82 °FPassing clouds.10 mph84%29.92 "HgN/A
12:00 PM84 °FPassing clouds.8 mph74%29.92 "HgN/A
11:30 AM84 °FPassing clouds.8 mph79%29.95 "HgN/A
11:00 AM84 °FPassing clouds.7 mph74%29.95 "HgN/A
10:30 AM82 °FSunny.9 mph79%29.95 "Hg10 mi
10:00 AM84 °FSunny.6 mph70%29.98 "Hg10 mi
9:30 AM84 °FSunny.No wind70%29.98 "Hg10 mi
9:00 AM81 °FSunny.No wind79%29.95 "Hg10 mi
8:00 AM77 °FSunny.1 mph89%29.95 "Hg10 mi
7:30 AM73 °FSunny.No wind100%29.95 "Hg10 mi
7:00 AM72 °FPartly sunny.No wind100%29.95 "HgN/A
6:00 AM72 °FPassing clouds.5 mph94%29.92 "HgN/A
5:30 AM72 °FClear.2 mph94%29.92 "Hg10 mi
5:00 AM72 °FClear.2 mph94%29.92 "Hg10 mi
4:30 AM72 °FPassing clouds.3 mph100%29.92 "HgN/A
4:00 AM72 °FClear.No wind94%29.89 "Hg10 mi
3:00 AM72 °FPassing clouds.No wind100%29.89 "HgN/A
2:30 AM72 °FClear.No wind100%29.89 "Hg10 mi
2:00 AM72 °FClear.1 mph100%29.92 "Hg10 mi
1:30 AM72 °FClear.No wind100%29.92 "Hg10 mi
1:00 AM73 °FClear.1 mph94%29.92 "Hg10 mi
12:00 AM73 °FClear.2 mph100%29.92 "Hg10 mi
11:00 PM
Fri, May 27
73 °FClear.3 mph100%29.92 "Hg10 mi
10:00 PM75 °FClear.No wind94%29.92 "Hg10 mi
9:30 PM75 °FClear.No wind94%29.92 "Hg10 mi
9:00 PM75 °FClear.No wind94%29.92 "Hg10 mi
8:30 PM75 °FPassing clouds.3 mph94%29.92 "HgN/A
8:00 PM75 °FPassing clouds.1 mph94%29.92 "HgN/A
7:00 PM77 °FPassing clouds.2 mph89%29.89 "HgN/A
6:30 PM77 °FPassing clouds.2 mph89%29.89 "HgN/A
6:00 PM77 °FPassing clouds.3 mph89%29.89 "HgN/A
5:30 PM79 °FPassing clouds.5 mph84%29.89 "HgN/A
5:00 PM81 °FPassing clouds.6 mph79%29.89 "HgN/A
4:30 PM81 °FPassing clouds.7 mph79%29.86 "HgN/A
4:00 PM82 °FPassing clouds.8 mph74%29.86 "HgN/A
3:30 PM82 °FPassing clouds.8 mph74%29.86 "HgN/A
3:00 PM81 °FPassing clouds.8 mph79%29.86 "HgN/A
2:30 PM82 °FPassing clouds.8 mph74%29.86 "HgN/A
2:00 PM84 °FPassing clouds.9 mph74%29.89 "HgN/A
Weather by CustomWeather, © 2016

See weather overviewHow to use our weather pages